When you browse on this site, cookies collect data to enhance your experience and personalize the content and advertising you see.
Visit our Privacy Policy to learn more. By continuing to use the site, you agree to this use of cookies and data.
  • In Österreich
  • Länderverzeichnis
  • Für 7 Tage
  • Wassertemperatur
  • Satellitenkarten
  • Wetterkarte
  • News
  • Widgets
  • user-avatar
    Anmelden

    Stündliche Wetter Kutaissi

    Heute, 21 November, Mittwoch

    Zeit Temperatur Niederschläge Wind Luftdruck Luftfeuchtigkeit
    00:00 +13°C° 0.8 mm 1 m/S 750 mmHg 92%
    01:00 +13°C° 0.8 mm 1 m/S 750 mmHg 93%
    02:00 +13°C° 0.8 mm 2 m/S 750 mmHg 94%
    03:00 +12°C° 0 mm 2 m/S 750 mmHg 95%
    04:00 +12°C° 1 mm 2 m/S 750 mmHg 95%
    05:00 +12°C° 1 mm 2 m/S 750 mmHg 94%
    06:00 +12°C° 1 mm 1 m/S 749 mmHg 94%
    07:00 +12°C° 1 mm 1 m/S 749 mmHg 94%
    08:00 +12°C° 1 mm 1 m/S 749 mmHg 93%
    09:00 +12°C° 1 mm 1 m/S 749 mmHg 92%
    10:00 +12°C° 0.8 mm 1 m/S 748 mmHg 92%
    11:00 +12°C° 0.8 mm 1 m/S 748 mmHg 91%
    12:00 +12°C° 0.8 mm 1 m/S 748 mmHg 90%
    13:00 +12°C° 0.3 mm 1 m/S 747 mmHg 90%
    14:00 +12°C° 0.3 mm 1 m/S 747 mmHg 90%
    15:00 +12°C° 0.3 mm 1 m/S 747 mmHg 90%
    16:00 +12°C° 0.1 mm 1 m/S 747 mmHg 91%
    17:00 +12°C° 0.1 mm 1 m/S 747 mmHg 92%
    18:00 +11°C° 0.1 mm 0 m/S 747 mmHg 92%
    19:00 +10°C° 0.4 mm 0 m/S 747 mmHg 92%
    20:00 +10°C° 0.4 mm 0 m/S 747 mmHg 91%
    21:00 +10°C° 0.4 mm 0 m/S 747 mmHg 91%
    22:00 +10°C° 0.9 mm 0 m/S 747 mmHg 90%
    23:00 +10°C° 0.9 mm 0 m/S 746 mmHg 90%

    Morgen, 22 November, Donnerstag

    Zeit Temperatur Niederschläge Wind Luftdruck Luftfeuchtigkeit
    00:00 +11°C° 0.9 mm 1 m/S 746 mmHg 90%
    01:00 +11°C° 1 mm 1 m/S 746 mmHg 90%
    02:00 +11°C° 1 mm 1 m/S 746 mmHg 90%
    03:00 +11°C° 1 mm 1 m/S 746 mmHg 90%
    04:00 +11°C° 1 mm 1 m/S 746 mmHg 90%
    05:00 +11°C° 1 mm 1 m/S 746 mmHg 90%
    06:00 +11°C° 1 mm 1 m/S 745 mmHg 90%
    07:00 +11°C° 1 mm 1 m/S 745 mmHg 90%
    08:00 +11°C° 1 mm 1 m/S 745 mmHg 89%
    09:00 +12°C° 1 mm 1 m/S 745 mmHg 89%
    10:00 +12°C° 1 mm 1 m/S 745 mmHg 88%
    11:00 +12°C° 1 mm 1 m/S 745 mmHg 88%
    12:00 +12°C° 1 mm 1 m/S 745 mmHg 87%
    13:00 +12°C° 1.1 mm 1 m/S 744 mmHg 88%
    14:00 +12°C° 1.1 mm 1 m/S 744 mmHg 88%
    15:00 +12°C° 1.1 mm 1 m/S 744 mmHg 89%
    16:00 +11°C° 1.2 mm 0 m/S 745 mmHg 90%
    17:00 +11°C° 1.2 mm 0 m/S 745 mmHg 90%
    18:00 +10°C° 1.2 mm 0 m/S 745 mmHg 91%
    19:00 +10°C° 1.1 mm 0 m/S 746 mmHg 91%
    20:00 +10°C° 1.1 mm 0 m/S 746 mmHg 91%
    21:00 +10°C° 1.1 mm 0 m/S 746 mmHg 91%
    22:00 +10°C° 1 mm 0 m/S 746 mmHg 91%
    23:00 +10°C° 1 mm 0 m/S 747 mmHg 91%

    übermorgen, 23 November, Freitag

    Zeit Temperatur Niederschläge Wind Luftdruck Luftfeuchtigkeit
    00:00 +10°C° 1 mm 0 m/S 747 mmHg 92%
    01:00 +10°C° 1.1 mm 0 m/S 747 mmHg 92%
    02:00 +10°C° 1.1 mm 0 m/S 747 mmHg 92%
    03:00 +10°C° 1.1 mm 0 m/S 747 mmHg 92%
    04:00 +10°C° 1.2 mm 0 m/S 747 mmHg 92%
    05:00 +10°C° 1.2 mm 0 m/S 748 mmHg 92%
    06:00 +10°C° 1.2 mm 0 m/S 748 mmHg 92%
    07:00 +10°C° 1 mm 0 m/S 748 mmHg 92%
    08:00 +10°C° 1 mm 0 m/S 749 mmHg 92%
    09:00 +11°C° 1 mm 1 m/S 749 mmHg 92%
    10:00 +11°C° 0.8 mm 1 m/S 749 mmHg 92%
    11:00 +10°C° 0.8 mm 2 m/S 749 mmHg 92%
    12:00 +12°C° 0.8 mm 2 m/S 749 mmHg 93%
    13:00 +12°C° 0.5 mm 2 m/S 749 mmHg 92%
    14:00 +11°C° 0.5 mm 3 m/S 750 mmHg 90%
    15:00 +11°C° 0.5 mm 3 m/S 750 mmHg 89%
    16:00 +10°C° 0.3 mm 2 m/S 751 mmHg 91%
    17:00 +9°C° 0.3 mm 2 m/S 752 mmHg 93%
    18:00 +9°C° 0.3 mm 2 m/S 752 mmHg 95%
    19:00 +10°C° 0.3 mm 1 m/S 753 mmHg 95%
    20:00 +10°C° 0.3 mm 1 m/S 754 mmHg 95%
    21:00 +9°C° 0.3 mm 1 m/S 754 mmHg 95%
    22:00 +9°C° 0.1 mm 1 m/S 755 mmHg 94%
    23:00 +9°C° 0.1 mm 1 m/S 755 mmHg 94%

    24 November, Samstag

    Zeit Temperatur Niederschläge Wind Luftdruck Luftfeuchtigkeit
    00:00 +9°C° 0.1 mm 1 m/S 755 mmHg 93%
    01:00 +9°C° 0.1 mm 1 m/S 756 mmHg 92%
    02:00 +8°C° 0.1 mm 1 m/S 756 mmHg 92%
    03:00 +8°C° 0.1 mm 1 m/S 756 mmHg 91%
    04:00 +8°C° 0 mm 1 m/S 756 mmHg 89%
    05:00 +8°C° 0 mm 1 m/S 756 mmHg 88%
    06:00 +7°C° 0 mm 1 m/S 756 mmHg 87%
    07:00 +8°C° 0 mm 1 m/S 756 mmHg 83%
    08:00 +9°C° 0 mm 1 m/S 757 mmHg 79%
    09:00 +9°C° 0 mm 2 m/S 757 mmHg 75%
    10:00 +10°C° 0 mm 2 m/S 756 mmHg 70%
    11:00 +13°C° 0 mm 2 m/S 756 mmHg 66%
    12:00 +14°C° 0 mm 2 m/S 755 mmHg 61%
    13:00 +13°C° 0 mm 3 m/S 755 mmHg 60%
    14:00 +13°C° 0 mm 3 m/S 755 mmHg 60%
    15:00 +13°C° 0 mm 3 m/S 755 mmHg 60%
    16:00 +12°C° 0 mm 3 m/S 755 mmHg 62%
    17:00 +11°C° 0 mm 3 m/S 755 mmHg 63%
    18:00 +9°C° 0 mm 3 m/S 756 mmHg 65%
    19:00 +9°C° 0 mm 3 m/S 756 mmHg 64%
    20:00 +9°C° 0 mm 3 m/S 756 mmHg 63%
    21:00 +9°C° 0 mm 3 m/S 756 mmHg 62%
    22:00 +9°C° 0 mm 3 m/S 755 mmHg 62%
    23:00 +8°C° 0 mm 3 m/S 755 mmHg 62%

    25 November, Sonntag

    Zeit Temperatur Niederschläge Wind Luftdruck Luftfeuchtigkeit
    00:00 +8°C° 0 mm 3 m/S 755 mmHg 62%
    01:00 +8°C° 0 mm 3 m/S 754 mmHg 62%
    02:00 +8°C° 0 mm 3 m/S 754 mmHg 63%
    03:00 +8°C° 0 mm 3 m/S 754 mmHg 63%
    04:00 +8°C° 0 mm 3 m/S 753 mmHg 64%
    05:00 +8°C° 0 mm 3 m/S 753 mmHg 64%
    06:00 +8°C° 0 mm 3 m/S 752 mmHg 65%
    07:00 +8°C° 0 mm 2 m/S 752 mmHg 63%
    08:00 +9°C° 0 mm 2 m/S 752 mmHg 62%
    09:00 +10°C° 0 mm 2 m/S 751 mmHg 60%
    10:00 +13°C° 0 mm 2 m/S 750 mmHg 58%
    11:00 +14°C° 0 mm 2 m/S 750 mmHg 55%
    12:00 +15°C° 0 mm 2 m/S 749 mmHg 53%
    13:00 +15°C° 0 mm 1 m/S 748 mmHg 54%
    14:00 +15°C° 0 mm 1 m/S 748 mmHg 56%
    15:00 +15°C° 0 mm 1 m/S 747 mmHg 57%
    16:00 +14°C° 0 mm 1 m/S 748 mmHg 61%
    17:00 +13°C° 0 mm 1 m/S 748 mmHg 64%
    18:00 +11°C° 0 mm 1 m/S 748 mmHg 67%
    19:00 +11°C° 0 mm 1 m/S 748 mmHg 68%
    20:00 +11°C° 0 mm 1 m/S 748 mmHg 68%
    21:00 +10°C° 0 mm 1 m/S 749 mmHg 68%
    22:00 +10°C° 0 mm 1 m/S 748 mmHg 68%
    23:00 +10°C° 0 mm 1 m/S 748 mmHg 68%

    26 November, Montag

    Zeit Temperatur Niederschläge Wind Luftdruck Luftfeuchtigkeit
    00:00 +10°C° 0 mm 1 m/S 748 mmHg 68%
    01:00 +10°C° 0 mm 1 m/S 748 mmHg 69%
    02:00 +10°C° 0 mm 1 m/S 748 mmHg 69%
    03:00 +10°C° 0 mm 1 m/S 748 mmHg 69%
    04:00 +10°C° 0 mm 1 m/S 748 mmHg 70%
    05:00 +10°C° 0 mm 1 m/S 748 mmHg 71%
    06:00 +9°C° 0 mm 1 m/S 748 mmHg 71%
    07:00 +10°C° 0 mm 1 m/S 748 mmHg 70%
    08:00 +11°C° 0 mm 1 m/S 748 mmHg 68%
    09:00 +12°C° 0 mm 1 m/S 748 mmHg 67%
    10:00 +13°C° 0 mm 1 m/S 748 mmHg 64%
    11:00 +14°C° 0 mm 1 m/S 747 mmHg 62%
    12:00 +15°C° 0 mm 1 m/S 747 mmHg 59%
    13:00 +15°C° 0 mm 1 m/S 747 mmHg 61%
    14:00 +15°C° 0 mm 1 m/S 747 mmHg 63%
    15:00 +15°C° 0 mm 1 m/S 746 mmHg 65%
    16:00 +13°C° 0 mm 1 m/S 747 mmHg 69%
    17:00 +12°C° 0 mm 1 m/S 747 mmHg 73%
    18:00 +11°C° 0 mm 1 m/S 748 mmHg 76%
    19:00 +10°C° 0 mm 2 m/S 748 mmHg 74%
    20:00 +9°C° 0 mm 2 m/S 748 mmHg 72%
    21:00 +9°C° 0 mm 2 m/S 748 mmHg 70%
    22:00 +9°C° 0 mm 2 m/S 748 mmHg 68%
    23:00 +9°C° 0 mm 2 m/S 748 mmHg 67%
    Mehr zeigen